STARLINK-1893 (46786 NORAD) Tracking and Keplerian Element Data

This shows tracking and keplerian element data for the satellite.

Feedback or suggestion? Click here.




ElementValue
Catalog46786
NameSTARLINK-1893
Epoch Orbit481
Epoch Day328.16667824
Epoch Year2020
RAAN15.4629
Inclination53.0556
Eccentricity0.0001092
Argument of Perigee70.0685
Mean Anonmoly162.8953
Mean Motion15.62829406
Decay Rate-0.00029448
L11 46786U 20074AZ 20328.16667824 -.00029448 00000-0 -31600-3 0 9991
L22 46786 53.0556 15.4629 0001092 70.0685 162.8953 15.62829406 4812

Live tracking and technical data element details for STARLINK-1893 (NORAD 46786). STARLINK-1893 can be tracked NOW for your location showing map with azimuth and elevation plus other details from your city location.

Track the satellite on the map from your city or location and see movement details for azimuth, elevation, latitude, longitude, range, height, and movement on the map or in text.







IsCatalogInMostPopularTable: catalog: 46786, numindb: 6
Update: records affected: 1



GetName: 46786 STARLINK-1893

Hit Count: updated at: Tue, 24 Nov 2020 11:58:36 GMT